TimeCST,TemperatureF,Dew PointF,Humidity,Sea Level PressureIn,VisibilityMPH,Wind Direction,Wind SpeedMPH,Gust SpeedMPH,PrecipitationIn,Events,Conditions,WindDirDegrees,DateUTC
12:15 AM,64.4,40.5,41,30.28,10.0,Calm,Calm,-,N/A,,Overcast,0,2012-11-15 06:15:00
12:35 AM,63.9,43.7,48,30.28,10.0,Calm,Calm,-,N/A,,Overcast,0,2012-11-15 06:35:00
12:55 AM,63.9,43.7,48,30.27,10.0,Calm,Calm,-,N/A,,Overcast,0,2012-11-15 06:55:00
1:15 AM,64.0,41.4,43,30.26,10.0,Calm,Calm,-,N/A,,Overcast,0,2012-11-15 07:15:00
1:35 AM,64.0,41.0,43,30.25,10.0,NNE,3.5,-,N/A,,Overcast,30,2012-11-15 07:35:00
1:55 AM,64.0,40.6,42,30.24,10.0,Calm,Calm,-,N/A,,Overcast,0,2012-11-15 07:55:00
2:15 AM,64.0,40.3,42,30.23,10.0,NNE,3.5,-,N/A,,Overcast,20,2012-11-15 08:15:00
2:35 AM,64.0,39.6,41,30.23,10.0,NNE,4.6,-,N/A,,Overcast,20,2012-11-15 08:35:00
2:55 AM,64.0,39.2,40,30.22,10.0,NNE,4.6,-,N/A,,Overcast,20,2012-11-15 08:55:00
3:15 AM,64.2,38.3,38,30.22,10.0,North,4.6,-,N/A,,Overcast,360,2012-11-15 09:15:00
3:35 AM,64.0,38.3,39,30.22,10.0,North,5.8,-,N/A,,Overcast,10,2012-11-15 09:35:00
3:55 AM,64.0,37.8,38,30.21,10.0,NNE,3.5,-,N/A,,Overcast,20,2012-11-15 09:55:00
4:15 AM,64.4,37.4,37,30.21,10.0,NNE,3.5,-,N/A,,Overcast,20,2012-11-15 10:15:00
4:35 AM,64.2,37.6,37,30.22,10.0,North,3.5,-,N/A,,Overcast,10,2012-11-15 10:35:00
4:55 AM,64.0,37.9,38,30.22,10.0,North,3.5,-,N/A,,Overcast,10,2012-11-15 10:55:00
5:15 AM,64.0,37.9,38,30.22,10.0,NNW,3.5,-,N/A,,Overcast,340,2012-11-15 11:15:00
5:35 AM,63.9,38.3,39,30.22,10.0,North,3.5,-,N/A,,Overcast,350,2012-11-15 11:35:00
5:55 AM,63.9,38.1,39,30.22,10.0,Calm,Calm,-,N/A,,Overcast,0,2012-11-15 11:55:00
6:15 AM,63.9,37.6,38,30.22,10.0,North,4.6,-,N/A,,Overcast,10,2012-11-15 12:15:00
6:35 AM,63.9,37.4,38,30.22,10.0,North,4.6,-,N/A,,Overcast,10,2012-11-15 12:35:00
6:55 AM,64.0,36.3,36,30.23,10.0,NNE,5.8,-,N/A,,Overcast,20,2012-11-15 12:55:00
7:15 AM,64.2,35.8,35,30.23,10.0,North,6.9,-,N/A,,Overcast,10,2012-11-15 13:15:00
7:35 AM,64.4,35.6,34,30.24,10.0,North,5.8,-,N/A,,Overcast,10,2012-11-15 13:35:00
7:55 AM,64.4,35.8,35,30.25,10.0,North,6.9,-,N/A,,Overcast,10,2012-11-15 13:55:00
8:15 AM,64.6,36.0,35,30.25,10.0,NNE,6.9,-,N/A,,Overcast,20,2012-11-15 14:15:00
8:55 AM,65.1,36.5,35,30.26,10.0,NNE,8.1,-,N/A,,Overcast,20,2012-11-15 14:55:00
9:15 AM,65.7,37.8,36,30.26,10.0,NNE,8.1,-,N/A,,Overcast,20,2012-11-15 15:15:00
9:35 AM,66.2,38.1,36,30.27,10.0,North,9.2,-,N/A,,Overcast,10,2012-11-15 15:35:00
10:15 AM,66.7,39.6,37,30.27,10.0,NNE,8.1,-,N/A,,Overcast,30,2012-11-15 16:15:00
10:35 AM,67.1,41.4,39,30.27,10.0,NE,11.5,-,N/A,,Overcast,40,2012-11-15 16:35:00
10:55 AM,67.5,42.4,40,30.27,10.0,NE,8.1,-,N/A,,Overcast,40,2012-11-15 16:55:00
11:15 AM,67.5,43.0,41,30.26,10.0,NE,9.2,-,N/A,,Overcast,40,2012-11-15 17:15:00
11:35 AM,68.0,43.3,41,30.25,10.0,NE,11.5,-,N/A,,Overcast,50,2012-11-15 17:35:00
11:55 AM,68.5,45.5,44,30.24,10.0,ENE,9.2,-,N/A,,Overcast,70,2012-11-15 17:55:00
12:15 PM,68.7,45.5,43,30.23,10.0,NE,10.4,-,N/A,,Overcast,50,2012-11-15 18:15:00
12:35 PM,69.4,46.2,43,30.22,10.0,NE,9.2,-,N/A,,Overcast,50,2012-11-15 18:35:00
12:55 PM,69.3,47.8,46,30.21,10.0,ENE,8.1,-,N/A,,Overcast,60,2012-11-15 18:55:00
1:15 PM,69.8,48.9,47,30.21,10.0,NE,9.2,-,N/A,,Overcast,50,2012-11-15 19:15:00
1:35 PM,69.6,48.0,46,30.20,10.0,NNE,9.2,-,N/A,,Overcast,30,2012-11-15 19:35:00
2:15 PM,70.2,50.7,50,30.18,10.0,NE,11.5,-,N/A,,Overcast,50,2012-11-15 20:15:00
2:35 PM,70.7,53.4,54,30.17,10.0,ENE,9.2,-,N/A,,Overcast,60,2012-11-15 20:35:00
2:55 PM,70.9,54.5,56,30.16,10.0,NE,9.2,-,N/A,,Overcast,50,2012-11-15 20:55:00
3:15 PM,70.9,55.6,58,30.17,10.0,NE,10.4,-,N/A,,Overcast,40,2012-11-15 21:15:00
3:35 PM,70.7,56.5,61,30.16,10.0,NE,9.2,-,N/A,,Overcast,40,2012-11-15 21:35:00
3:55 PM,70.2,57.0,63,30.16,10.0,NE,8.1,-,N/A,,Overcast,50,2012-11-15 21:55:00
4:15 PM,70.0,57.6,65,30.16,10.0,NE,10.4,-,N/A,,Overcast,50,2012-11-15 22:15:00
4:35 PM,69.8,57.9,66,30.17,10.0,NE,8.1,-,N/A,,Overcast,50,2012-11-15 22:35:00
4:55 PM,69.8,57.7,65,30.18,10.0,NE,8.1,-,N/A,,Overcast,50,2012-11-15 22:55:00
5:15 PM,69.4,57.9,67,30.17,10.0,NE,9.2,-,N/A,,Overcast,40,2012-11-15 23:15:00
5:35 PM,69.3,58.6,69,30.18,10.0,NE,5.8,-,N/A,,Overcast,50,2012-11-15 23:35:00
5:55 PM,69.1,58.6,69,30.19,10.0,NE,6.9,-,N/A,,Overcast,40,2012-11-15 23:55:00
6:15 PM,69.1,59.0,70,30.19,10.0,NE,5.8,-,N/A,,Overcast,40,2012-11-16 00:15:00
6:35 PM,69.3,59.0,70,30.19,10.0,NE,8.1,-,N/A,,Overcast,40,2012-11-16 00:35:00
7:15 PM,69.3,59.0,70,30.20,10.0,NE,6.9,-,N/A,,Overcast,40,2012-11-16 01:15:00
7:35 PM,69.4,59.0,69,30.21,10.0,NE,8.1,-,N/A,,Overcast,40,2012-11-16 01:35:00
8:15 PM,69.8,59.0,68,30.22,10.0,NE,5.8,-,N/A,,Overcast,40,2012-11-16 02:15:00
8:35 PM,69.8,59.2,69,30.23,10.0,NE,5.8,-,N/A,,Overcast,40,2012-11-16 02:35:00
8:55 PM,69.8,59.4,69,30.23,10.0,NE,4.6,-,N/A,,Overcast,40,2012-11-16 02:55:00
9:15 PM,69.8,59.9,71,30.23,10.0,NNE,3.5,-,N/A,,Overcast,30,2012-11-16 03:15:00
9:35 PM,69.8,59.9,71,30.24,10.0,NE,3.5,-,N/A,,Overcast,50,2012-11-16 03:35:00
9:55 PM,69.8,60.3,72,30.24,10.0,NE,3.5,-,N/A,,Overcast,40,2012-11-16 03:55:00
10:15 PM,69.8,60.8,73,30.22,10.0,NE,3.5,-,N/A,,Overcast,50,2012-11-16 04:15:00
10:35 PM,69.4,61.0,74,30.22,10.0,Calm,Calm,-,N/A,,Overcast,0,2012-11-16 04:35:00
10:55 PM,69.4,60.8,74,30.23,10.0,NNE,6.9,-,N/A,,Overcast,30,2012-11-16 04:55:00
11:15 PM,69.3,60.8,74,30.22,10.0,ENE,6.9,-,N/A,,Overcast,60,2012-11-16 05:15:00
11:35 PM,69.4,61.7,76,30.21,10.0,ENE,6.9,-,N/A,,Overcast,60,2012-11-16 05:35:00
11:55 PM,69.4,63.0,80,30.21,10.0,ENE,6.9,-,N/A,,Overcast,60,2012-11-16 05:55:00